Home   Weather   Narsarsuaq   Past weeks
Flag for Greenland

Past Weather in Narsarsuaq, Greenland — Yesterday and Last 2 Weeks

Now
45 °F

Quite cool.


Feels Like: 42 °F
Forecast: N/A
Wind: 5 mph from Southwest

Location: Narsarsuaq

Current Time: Aug 22, 2019 at 9:29:41 pm

Latest Report: Aug 22, 2019 at 8:50 pm


Visibility: N/A

Pressure: 29.92 "Hg

Humidity: 71%

Dew Point: 36 °F

Location of NarsarsuaqLocation

Past Weather in Narsarsuaq — Graph

°F

Narsarsuaq Temperature Yesterday

Maximum temperature yesterday: 55 °F (at 3:50 pm)
Minimum temperature yesterday: 39 °F (at 4:50 am)
Average temperature yesterday: 46 °F

High & Low Weather Summary for the Past Weeks

 TemperatureHumidityPressure
High66 °F (Aug 11, 2:50 pm)94% (Aug 9, 7:50 pm)30.15 "Hg (Aug 9, 7:50 pm)
Low37 °F (Aug 16, 5:50 am)21% (Aug 14, 3:50 pm)29.68 "Hg (Aug 13, 12:50 am)
Average51 °F61%29.92 "Hg
* Reported Aug 7 7:50 pm — Aug 22 7:50 pm, Narsarsuaq. Weather by CustomWeather, © 2019

Note: Actual official high and low records may vary slightly from our data, if they occured in-between our weather recording intervals... More about our weather records

Advertising

Narsarsuaq Weather History for the Previous 24 Hours

Scroll right to see more
 ConditionsComfort  
Time TempWeatherWind HumidityBarometerVisibility
7:50 pm
Thu, Aug 22
48 °FCool.7 mph62%29.92 "HgN/A
6:50 pm50 °FPassing clouds.8 mph58%29.92 "HgN/A
5:50 pm48 °FPassing clouds.12 mph62%29.92 "HgN/A
4:50 pm50 °FScattered clouds.10 mph58%29.89 "HgN/A
3:50 pm52 °FScattered clouds.13 mph54%29.92 "HgN/A
2:50 pm50 °FScattered clouds.13 mph62%29.92 "HgN/A
1:50 pm52 °FScattered clouds.8 mph58%29.92 "HgN/A
12:50 pm48 °FPartly sunny.8 mph62%29.92 "HgN/A
11:50 am46 °FPartly sunny.10 mph66%29.95 "HgN/A
10:50 am46 °FBroken clouds.5 mph71%29.95 "HgN/A
9:50 am45 °FBroken clouds.6 mph76%29.95 "HgN/A
8:50 am43 °FPartly sunny.5 mph81%29.95 "HgN/A
7:50 am43 °FPartly sunny.7 mph81%29.95 "HgN/A
6:50 am43 °FBroken clouds.6 mph81%29.95 "HgN/A
5:50 am43 °FOvercast.1 mph81%29.95 "HgN/A
4:50 am43 °FOvercast.1 mph87%29.95 "HgN/A
3:50 am43 °FOvercast.No wind81%29.95 "HgN/A
2:50 am41 °FPassing clouds.5 mph87%29.95 "HgN/A
1:50 am41 °FQuite cool.1 mph87%29.95 "HgN/A
12:50 am41 °FQuite cool.No wind81%29.95 "HgN/A
11:50 pm
Wed, Aug 21
43 °FQuite cool.2 mph81%29.95 "HgN/A
10:50 pm43 °FPassing clouds.2 mph81%29.98 "HgN/A
9:50 pm45 °FPassing clouds.6 mph76%29.95 "HgN/A
Weather by CustomWeather, © 2019

See weather overview